Location: Unspecified
(0.0000°N, 0.0000°E)
Time: 11:39:12
(UTC+00:00)

USA 278 - Pass Details

Date: 13 June 2023
Orbit: 1731 x 38625 km, 63.0° (Epoch: 06 September)

Event Time Altitude Azimuth Distance (km) Brightness Sun altitude
Exits shadow 02:23:44 38° 275° (W) 9,578 ? -48.1°
Maximum altitude 13:11:30 63° 261° (W) 7,230 ? 61.0°
Drops below altitude 10° 13:30:45 10° 176° (S) 5,737 ? 58.0°
Sets 13:33:18 0° 171° (S) 6,219 ? 57.6°
